Location: Asheville, NC
(35.6000°N, 82.5500°W)
Time: 05:35:02
(UTC-05:00)

XW-2D - Pass Details

Date: 11 February 2018
Orbit: 509 x 531 km, 97.5° (Epoch: 17 February)

Event Time Altitude Azimuth Distance (km) Brightness Sun altitude
Rises 06:47:21 0° 6° (N) 2,621 ? -7.5°
Reaches altitude 10° 06:49:28 10° 2° (N) 1,732 ? -7.1°
Maximum altitude 06:53:07 54° 284° (WNW) 627 ? -6.3°
Drops below altitude 10° 06:56:45 10° 207° (SSW) 1,728 ? -5.6°
Sets 06:58:51 0° 203° (SSW) 2,613 ? -5.2°
